Regional Weather Roundup
Issued by NWS

Home | Current Version | Previous Version | Text Only | Print | Product List | Glossary Off
Versions: 1 2 3 4 5 6 7 8 9 10 11 12 13 14 15 16 17 18 19 20 21 22 23 24 25 26 27 28 29 30 31 32 33 34 35 36 37 38 39 40 41 42 43 44 45 46 47 48 49 50

000
ASUS43 KMKX 110721
RWRWI

WISCONSIN REGIONAL WEATHER ROUNDUP
NATIONAL WEATHER SERVICE MILWAUKEE/SULLIVAN WI
200 AM CDT FRI JUL 11 2014

NOTE: "FAIR" INDICATES FEW OR NO CLOUDS BELOW 12,000 FEET WITH NO
SIGNIFICANT WEATHER AND/OR OBSTRUCTIONS TO VISIBILITY.

WIZ001-002-006>008-014>016-023>028-110800-
NORTHWEST WISCONSIN

CITY           SKY/WX    TMP DP  RH WIND       PRES   REMARKS
SUPERIOR ARPT  LGT RAIN  54  50  86 CALM      30.01R
ASHLAND        MOCLDY    68  62  81 S7        30.01S
HAYWARD        CLOUDY    69  63  81 S7        30.04R
SIREN          CLOUDY    73  58  60 S13G20    30.00F
RICE LAKE      MOCLDY    68  60  75 SE7       30.05S
LADYSMITH      MOCLDY    68  63  83 S6        30.08S
EAU CLAIRE     MOCLDY    68  62  81 S8        30.05S
MENOMONIE      MOSUNNY   65  60  81 S6        30.05S
NEW RICHMOND   MOCLDY    71  57  60 S12G21    30.02F
OSCEOLA        MOCLDY    72  59  63 S9        30.03S
$$

WIZ003>005-009-010-017-018-110800-
NORTH CENTRAL WISCONSIN

CITY           SKY/WX    TMP DP  RH WIND       PRES   REMARKS
WOODRUFF       PTCLDY    64  60  86 S5        30.10S
RHINELANDER    MOCLDY    63  59  87 S3        30.12S
EAGLE RIVER    PTCLDY    61  56  82 CALM      30.10F
LAND O LAKES   MOCLDY    64  58  83 CALM      30.11F
PHILLIPS       CLOUDY    65  62  89 S8        30.08S
TOMAHAWK       MOCLDY    63  60  89 CALM      30.11S
MEDFORD        PTCLDY    65  61  86 S7        30.11S
MERRILL        CLOUDY    65  62  90 S3        30.11S
$$

WIZ029-030-035-036-043>047-110800-
CENTRAL WISCONSIN

CITY           SKY/WX    TMP DP  RH WIND       PRES   REMARKS
WAUSAU         MOCLDY    66  61  84 S5        30.10S
MOSINEE        PTCLDY    61  61 100 SE6       30.13S
MARSHFIELD     PTCLDY    65  61  87 S7        30.11S
STEVENS POINT  PTCLDY    64  60  84 S5        30.13S
WAUPACA        PTCLDY    64  59  85 CALM      30.14R
WAUTOMA        PTCLDY    66  61  84 CALM      30.15R
WISC RAPIDS    PTCLDY    66  61  84 S6        30.13R
CAMP DOUGLAS   PTCLDY    65  63  94 SE6       30.11S
$$

WIZ011>013-019>022-031-037>040-048>050-110800-
NORTHEAST WISCONSIN

CITY           SKY/WX    TMP DP  RH WIND       PRES   REMARKS
ANTIGO         MOCLDY    60  58  94 S7        30.14S
STURGEON BAY   PTCLDY    61  46  59 S10       30.15S
GREEN BAY      MOCLDY    63  52  67 S7        30.15S
MANITOWOC      MOCLDY    63  50  62 S7        30.17R
APPLETON       CLOUDY    63  52  67 S9        30.15S
CLINTONVILLE   CLOUDY    63  55  77 S5        30.13S
OSHKOSH        CLOUDY    62  55  77 S10       30.14S
$$

WIZ032>034-041-042-053>061-110800-
SOUTHWEST WISCONSIN

CITY           SKY/WX    TMP DP  RH WIND       PRES   REMARKS
LA CROSSE      CLEAR     70  61  73 SE5       30.09R
SPARTA         PTCLDY    67  58  74 S6        30.11S
VIROQUA        FAIR      65  59  80 S8        30.13S
BOSCOBEL       CLEAR     66  60  81 CALM      30.12F
PRAIRIE DU CHI CLEAR     64  58  80 E5        30.11S
PLATTEVILLE    FAIR      63  60  90 SE8       30.16S
$$

WIZ056-057-062-063-064-067-068-110800-
SOUTH CENTRAL WISCONSIN

CITY           SKY/WX    TMP DP  RH WIND       PRES   REMARKS
BARABOO/DELLS  CLEAR     64  58  80 S6        30.14S
LONE ROCK      CLEAR     65  59  81 NE3       30.14R
WATERTOWN      CLOUDY    60  55  82 CALM      30.16S
MADISON        PTCLDY    68  58  70 S7        30.16R
MIDDLETON      FAIR      67  57  71 S6        30.16S
MONROE         PTCLDY    63  57  82 S9        30.17S
JANESVILLE     MOCLDY    64  54  68 S8        30.16S
$$

WIZ051-052-058>065-066-070>072-110800-
SOUTHEAST WISCONSIN

CITY           SKY/WX    TMP DP  RH WIND       PRES   REMARKS
MILWAUKEE      MOCLDY    62  51  67 S6        30.18S
WAUKESHA       MOCLDY    61  48  63 S6        30.19S
MILWAUKEE/TIMM MOCLDY    63  48  59 S3        30.19S
RACINE         PTCLDY    60  55  83 S3        30.20S
BURLINGTON     PTCLDY    54  53  95 CALM      30.19R
KENOSHA        PTCLDY    59  52  77 S5        30.19R
FOND DU LAC    MOCLDY    62  52  69 S7        30.16S
SHEBOYGAN      PTCLDY    59  53  80 CALM      30.17S
WEST BEND      MOCLDY    61  46  59 S6        30.17F
JUNEAU         CLOUDY    61  38  42 SE7       30.18S
$$

LSZ147-162-110800-
LAKE SUPERIOR

STATION/POSITION TIME  TEMP    WIND        PRES    WAVE
                       AIR SEA DIR/SP/G            HT/PER
                 (UTC) (F)     (DEG/KT/KT) (MB)    (FT/S)
W MID LAKE BUOY  0650   48 38  180/  6/  8 1016.2F   0
PORT WING        0600   56      10/  1/  2 1015.6
SAXON HARBOR     0630          190/  2/  6 1016.3S
$$

LMZ867-665-643>646-110800-
LAKE MICHIGAN

STATION/POSITION TIME  TEMP    WIND        PRES    WAVE
                       AIR SEA DIR/SP/G            HT/PER
                 (UTC) (F)     (DEG/KT/KT) (MB)    (FT/S)
N MID LAKE BUOY  0650   59 56  200/ 10/ 12 1020.7S   1
NORTHPORT PIER   0600   62     170/  5/  9 1020.7R
SISTER BAY       0610   60     170/  9/ 11   N/A
ALGOMA LAKESHORE 0620          220/  7/  8   N/A
KEWAUNEE LAKESHO 0700   53     170/  5/  6 1021.9R
SHEBOYGAN LAKESH 0700   63     180/  6/  7 1021.8R
PORT WASHINGTON  0600   62     170/  2/  5 1022.4
MILWAUKEE LAKESH 0700   63     180/  4/  5   N/A
S MID LAKE BUOY  0650   60 59  190/  2/  2 1022.6R   0
KENOSHA   LAKESH 0700   63     200/  4/  6   N/A
$$

TC  - TEMPERATURE IN CELSIUS
VSB - VISIBILITY IN STATUTE MILES
WCI - WIND CHILL INDEX
HX  - HEAT INDEX




USA.gov is the U.S. government's official web portal to all federal, state and local government web resources and services.